Overview Statistics Trail Chart Weather Telemetry Raw packets
 

This is the latest recevied weather packets stored in our database for station/object KC9DRE. If no packets are shown the sender has not sent any weather packets the latest 10 day(s).

<< 54 55 56 57 58 59 60 >>
Time Temp. Humidity Pressure Rain* Wind** Luminosity Snow
1777571505 15° C 46% 1017.7 hPa 0 mm - 865 W/m² -
1777571202 15° C 44% 1017.7 hPa 0 mm - 866 W/m² -
1777570897 15.56° C 42% 1017.7 hPa 0 mm - 865 W/m² -
1777570594 15° C 45% 1018 hPa 0 mm - 876 W/m² -
1777570291 15° C 47% 1018.3 hPa 0 mm - 868 W/m² -
1777569986 15° C 45% 1018 hPa 0 mm - 867 W/m² -
1777569682 15° C 44% 1018.2 hPa 0 mm - 870 W/m² -
1777569378 14.44° C 46% 1018.1 hPa 0 mm - 869 W/m² -
1777569075 14.44° C 42% 1018.2 hPa 0 mm - 870 W/m² -
1777568771 15° C 39% 1018.2 hPa 0 mm - 865 W/m² -
1777568469 15.56° C 42% 1018 hPa 0 mm - 864 W/m² -
1777568165 15.56° C 43% 1017.9 hPa 0 mm - 860 W/m² -
1777567862 15° C 43% 1018.1 hPa 0 mm - 858 W/m² -
1777567558 14.44° C 44% 1018.1 hPa 0 mm - 859 W/m² -
1777567256 14.44° C 46% 1018.1 hPa 0 mm - 855 W/m² -
1777566955 15° C 43% 1018 hPa 0 mm - 848 W/m² -
1777566652 15° C 45% 1018.2 hPa 0 mm - 841 W/m² -
1777566349 15° C 45% 1018.2 hPa 0 mm - 838 W/m² -
1777566046 14.44° C 43% 1017.9 hPa 0 mm - 833 W/m² -
1777565742 13.89° C 40% 1018 hPa 0 mm - 827 W/m² -
1777565438 13.89° C 44% 1017.9 hPa 0 mm - 821 W/m² -
1777565134 14.44° C 41% 1017.9 hPa 0 mm - 814 W/m² -
1777564831 13.89° C 44% 1017.9 hPa 0 mm - 807 W/m² -
1777564526 13.89° C 40% 1018.1 hPa 0 mm - 800 W/m² -
1777564221 13.89° C 44% 1018.1 hPa 0 mm - 791 W/m² -

* Rain latest hour (hover to see other rain measurements)
** Current wind speed in m/s (hover to see current wind gust speed)